ELEKTRON 3 DEB, 29008

Orbit data source: Space-Track

ELEKTRON 3 DEB, 29008 is space debris originally from a launch on Fri, 10 Jul 1964 UTC launched from the Tyuratam Missile And Space Complex (TTMTR). Debris objects in space refer to the collection of defunct objects orbiting the Earth. Examples of debris include non-operational satellites, rocket bodies, and fragments generated from explosions, collisions, or faulty payload assembly.

Loading next visibility...
Identifier
29008, 1964-038G
Orbit
Active
Country
Flag of CISCIS
Related business
Manufacturer
Unknown
Mission
Spacecraft
Bus & Motor
Unknown
Mass
Unknown
Launch date (UTC)
1964-07-10 (61 years ago)
Launch vehicle
Unknown
Launch site
Tyuratam Missile And Space Complex (TTMTR)
Object type
Payload
Rocket body
Debris
Shape & HBR
Unknown
Radar Cross Section
Small (<0.1 m²)

Expand to show TLE details & history
Last TLE update: 1 year ago

TLE from 1 year ago
0 ELEKTRON 3 DEB
1 29008U 64038G   24088.72519352  .00006098  00000-0  15301-2 0  9991
2 29008  60.8373 212.7064 2884248 173.7282 190.9870  9.32974262656135
Epoch: 2024-03-28T17:24Z
TLE epoch observation values (Epoch: 2024-03-28T17:24:16.72Z)
Latitude
-0.00005°
Longitude
125.01797°
Altitude
5,873.414 km
Speed
4.823 km/s
True Right ascension
14h 10m 49s
True Declination
0° 00' 00"
Sunlit
Object was in full shadow at epoch
Visualization orbit readout
Latitude
Unknown
Longitude
Unknown
Altitude
Unknown
Speed
Unknown
Apparent Right ascension
Unknown
Apparent Declination
Unknown
Sunlit
N/A
Visualization observer readout
Local Sidereal Time
02:59:13
Azimuth
Unknown
Elevation
Unknown
Doppler factor
Unknown
Orbital elements
Apogee altitude
5,901.351 km
Perigee altitude
403.616 km
Semi-major axis
9,530.62 km
Eccentricity
0.28842
Inclination
60.8373°
RAAN
212.7064°
Arg. of periapsis
173.7282°
True anomaly
186.34775°
Mean anomaly
190.987°
Eccentric anomaly
188.53452°
Mean motion
2.33271 °/min
Orbital period
154.33 mins
BSTAR
0.0015301
Loading maneuver chart data...
Computing Atmospheric mass density...
Loading historical data...
Loading historical data...
Loading historical data...
Loading historical data...
Loading historical data...
Loading historical data...
Loading historical data...

Documentation

Showing up to 5 results
|